Wind_Speed
19 18 18 19 19 19 18 17 17 17 18 18 16 15 13 13 13 13 12 12 11 11 11 10 10 8 8 8 8 9 10 10 10 10 10 10 10 10 9 9 8 8 7 6
19 19 19 20 20 20 20 19 18 18 19 18 16 15 14 13 13 14 15 14 13 14 13 11 10 9 9 9 10 10 10 11 10 10 10 10 11 10 10 9 9 8 7 7
19 19 19 19 19 20 20 19 18 19 18 18 18 17 16 15 15 15 15 15 14 14 13 12 10 10 10 10 10 11 11 11 10 10 10 11 11 11 10 9 9 9 8 8
19 19 19 19 19 18 18 17 18 19 19 18 18 18 17 16 16 16 16 15 14 14 14 13 11 11 11 11 11 11 11 11 11 11 11 11 11 10 10 10 10 10 9 8
19 19 19 19 18 18 17 18 18 19 19 19 19 18 16 16 17 16 15 14 14 14 13 13 12 11 12 12 12 12 12 12 12 12 12 11 11 10 10 11 11 10 10 9
19 19 19 18 19 19 19 19 19 20 20 20 19 19 17 17 16 15 14 14 13 13 13 13 12 12 12 12 12 13 13 13 14 13 13 12 12 12 12 11 11 11 10 10
18 19 19 19 19 19 20 20 20 20 21 20 19 19 18 16 15 14 14 14 13 12 13 13 13 13 13 13 14 14 15 15 15 15 14 14 13 14 13 13 12 11 11 10
18 19 19 19 19 19 19 20 22 21 21 20 19 19 17 16 15 14 14 13 14 13 13 13 13 13 14 14 15 15 16 16 16 16 16 15 15 15 14 14 13 12 11 11
17 18 19 20 20 20 20 21 22 22 22 21 20 19 18 16 16 15 15 15 14 14 14 14 15 15 15 16 16 17 17 17 17 17 16 16 16 16 15 15 14 13 12 12
18 18 18 20 21 21 21 21 22 23 23 22 21 21 19 18 17 16 17 17 16 16 16 16 16 16 16 17 17 18 18 18 17 17 17 16 17 17 16 16 15 14 13 14
19 19 18 20 21 21 21 22 22 23 23 23 23 21 20 19 18 18 18 18 17 17 17 17 17 17 17 17 18 18 18 19 19 18 17 16 15 16 16 16 16 16 15 15
19 20 19 20 21 21 22 22 23 23 23 23 23 21 20 19 18 18 18 18 18 18 17 17 18 18 17 18 18 19 18 18 18 18 17 17 16 16 16 17 16 15 16 16
20 21 20 21 22 22 22 22 23 23 24 23 23 21 20 20 19 19 20 19 19 19 19 19 19 19 20 20 19 19 19 18 18 18 18 18 18 18 18 17 17 16 17 17
20 21 21 21 21 23 23 23 23 23 24 24 23 22 21 20 20 20 20 21 21 21 21 21 22 21 21 21 20 19 18 18 18 18 18 19 19 19 19 19 18 17 18 18
21 21 21 21 22 22 23 23 23 24 25 24 24 23 22 22 21 20 21 21 22 22 22 22 23 22 21 21 20 19 19 19 19 19 19 20 20 20 19 19 18 18 18 18
21 22 22 22 22 23 23 24 24 24 25 25 25 23 22 22 22 22 22 22 22 23 24 24 23 21 21 21 21 21 20 20 20 20 20 20 20 19 19 19 19 19 19 19
23 22 22 21 22 23 23 23 25 26 26 26 25 24 24 23 22 22 22 23 23 23 24 24 23 22 22 22 22 22 22 22 21 22 21 22 21 21 21 21 21 20 19 19
24 23 22 22 22 23 22 22 24 25 25 26 25 23 23 24 24 23 23 24 24 24 24 24 24 23 23 23 23 23 24 24 23 23 23 23 23 22 22 22 22 22 22 22
25 24 24 23 22 22 22 22 23 24 24 24 25 24 23 23 24 24 24 25 25 24 24 24 24 24 25 25 25 25 25 24 24 23 24 23 23 23 23 23 24 24 23 23
24 24 24 24 24 23 21 22 22 23 24 23 24 24 24 25 24 24 24 24 24 24 24 24 25 25 26 26 26 26 26 25 25 25 25 25 25 25 24 24 25 25 25 24
24 24 23 23 24 23 22 22 22 23 23 23 24 24 24 25 25 25 25 25 25 26 26 26 25 24 25 27 27 27 27 27 27 26 26 26 26 25 25 25 25 26 26 26
23 24 23 23 24 23 22 22 22 22 23 23 23 24 24 24 25 25 25 26 26 27 27 27 27 26 26 27 27 28 28 28 28 27 27 26 26 26 26 27 27 27 27 27
24 24 24 23 22 22 22 22 22 22 22 22 22 22 23 23 24 25 26 26 27 28 28 28 28 28 28 28 28 28 28 28 29 28 28 28 27 27 28 28 28 28 28 27
23 23 23 24 22 22 21 22 22 22 22 22 22 22 22 23 24 25 26 26 27 27 28 29 29 29 29 29 29 28 28 28 28 28 28 28 28 28 28 28 27 28 29 28
23 23 23 23 23 22 22 22 22 22 22 22 22 22 23 24 25 26 26 26 26 27 27 28 28 28 28 28 28 28 27 27 27 27 28 27 27 27 26 26 26 27 27 27
23 23 23 23 23 24 23 23 23 23 23 23 23 24 24 25 25 26 26 26 26 27 27 27 27 27 27 27 27 27 26 26 26 26 25 25 26 25 25 25 25 26 26 27
Wind_Direction
239 237 237 236 236 239 239 238 238 242 246 248 252 257 262 265 264 269 278 283 290 298 300 302 302 300 301 305 310 314 319 318 317 320 325 326 328 329 325 320 317 317 314 309
238 238 237 236 236 238 240 238 238 241 245 247 252 258 262 265 266 271 277 281 288 291 296 296 294 290 294 301 304 305 311 313 312 312 317 322 321 324 325 319 315 311 307 303
237 238 238 236 235 235 237 237 239 242 245 248 253 256 261 266 270 273 277 279 281 287 288 287 283 285 289 295 299 302 303 303 303 304 308 313 317 319 322 323 319 314 307 302
235 236 237 237 235 236 238 241 241 245 249 252 256 260 260 264 269 273 275 277 279 281 282 282 277 277 280 286 292 294 295 297 297 296 299 304 308 311 313 314 314 313 308 300
232 233 235 235 236 238 238 241 244 246 250 254 256 260 261 266 269 271 275 276 276 275 279 276 273 273 276 281 285 290 292 291 291 291 292 296 300 302 302 305 305 304 301 299
230 233 234 234 236 239 238 241 244 246 249 253 257 262 264 267 272 272 274 273 275 273 272 273 274 273 275 279 282 286 287 287 288 289 290 292 294 295 295 298 299 299 295 290
229 233 234 234 236 239 240 242 245 247 249 252 256 260 265 268 269 272 274 275 272 271 267 268 272 272 275 277 279 282 284 287 287 287 287 287 289 290 289 290 291 291 292 291
230 232 233 234 236 239 240 243 245 249 250 250 253 258 262 265 265 267 270 271 267 263 261 266 272 271 273 276 279 286 288 286 285 283 285 287 287 289 288 287 287 284 283 287
231 232 234 234 234 237 241 244 246 249 250 252 255 257 259 262 266 268 271 270 265 260 262 268 271 271 273 276 280 283 287 287 285 282 284 289 287 286 288 287 286 280 276 277
231 231 233 237 239 241 243 245 246 249 252 256 257 258 261 263 266 268 271 273 268 267 268 271 271 272 275 277 280 283 284 283 281 282 283 289 286 284 285 285 286 284 278 278
232 233 233 238 242 245 245 246 249 252 254 257 261 263 265 267 269 269 271 272 271 271 272 275 274 272 278 282 286 286 287 284 279 281 284 289 290 284 282 283 284 282 279 278
234 235 235 239 243 245 249 250 252 253 254 258 262 266 268 268 271 272 272 272 272 273 274 276 275 274 276 281 283 284 286 288 285 283 283 287 288 288 287 286 286 282 278 276
236 238 238 240 244 248 250 253 253 255 258 260 263 267 269 269 270 270 271 272 273 273 274 275 274 273 275 279 281 284 286 288 290 288 285 285 285 285 285 284 286 284 281 279
240 242 243 245 248 250 252 252 252 253 257 261 264 267 268 271 271 271 271 273 272 272 274 275 272 271 274 277 280 283 284 287 287 288 286 284 283 283 283 283 283 281 280 280
245 248 248 247 247 249 252 253 254 255 258 261 264 266 270 270 270 270 271 272 271 271 273 276 274 271 273 275 278 281 284 285 285 285 287 285 283 281 279 280 283 281 278 279
250 253 253 252 250 250 252 252 254 256 259 262 265 268 269 270 267 266 269 271 272 271 271 274 274 272 272 275 279 280 283 285 283 282 283 284 282 279 279 280 282 281 280 280
253 257 257 256 254 253 254 254 254 257 260 262 264 266 267 268 268 266 266 269 271 273 271 271 270 269 271 275 277 278 282 284 283 281 281 281 280 276 276 278 280 281 282 283
256 258 259 260 257 256 257 257 258 261 264 265 265 265 266 266 267 266 264 266 268 269 269 270 271 272 272 275 277 279 281 281 281 279 279 280 279 277 277 277 278 279 281 281
258 258 258 258 259 259 259 260 262 264 266 268 268 268 267 266 267 266 267 268 269 270 270 270 271 273 274 276 278 280 281 279 277 276 277 277 275 275 277 277 276 277 279 279
256 258 260 260 259 260 262 263 266 267 267 266 267 268 269 268 268 268 268 269 270 271 272 271 272 274 275 276 276 278 278 278 276 276 276 276 276 275 275 274 275 276 276 277
257 258 260 262 263 263 264 265 267 268 268 267 267 268 268 268 269 269 270 271 273 274 274 274 274 276 278 276 276 277 277 277 276 275 275 275 275 274 272 272 274 275 275 275
257 257 258 261 263 264 264 266 265 268 269 269 268 267 268 268 269 270 271 272 273 275 277 277 276 277 278 278 278 278 277 279 278 276 277 276 276 274 274 275 275 275 275 276
254 255 256 258 262 264 264 264 266 268 271 271 269 269 269 269 269 270 272 273 275 276 277 278 277 277 278 279 278 279 279 279 279 277 277 278 277 276 276 277 276 275 275 275
252 254 257 257 260 261 262 263 265 267 269 271 270 270 269 270 271 271 273 275 276 278 278 279 279 278 278 278 279 279 279 280 280 278 278 280 278 276 275 275 275 275 274 274
254 256 258 259 258 261 263 264 265 268 270 272 273 272 272 272 272 273 275 276 278 280 281 281 279 278 278 279 280 279 280 281 281 279 279 279 279 278 276 276 276 275 273 274
254 256 258 260 260 261 262 263 266 269 271 273 273 274 274 275 275 275 276 278 280 282 281 281 280 278 277 278 278 278 280 281 281 281 280 278 279 279 276 276 276 276 275 275
Height
5858 5861 5862 5864 5865 5867 5868 5869 5870 5872 5872 5873 5874 5875 5876 5877 5877 5877 5877 5877 5876 5876 5875 5875 5874 5873 5872 5872 5871 5870 5870 5869 5868 5867 5865 5864 5863 5861 5860 5858 5857 5856 5855 5854
5855 5857 5858 5859 5861 5863 5864 5866 5868 5869 5869 5870 5871 5872 5873 5873 5874 5875 5875 5874 5874 5873 5873 5872 5872 5871 5871 5870 5870 5869 5868 5867 5866 5865 5864 5862 5861 5860 5858 5857 5855 5854 5853 5852
5851 5853 5854 5856 5858 5859 5861 5863 5864 5865 5866 5867 5868 5870 5870 5871 5871 5871 5871 5871 5870 5870 5870 5869 5869 5869 5869 5868 5867 5867 5866 5865 5864 5863 5861 5860 5859 5858 5856 5855 5854 5852 5851 5850
5847 5849 5851 5853 5855 5856 5858 5860 5861 5862 5862 5863 5865 5866 5867 5867 5867 5868 5868 5867 5867 5867 5866 5866 5866 5865 5866 5866 5865 5864 5863 5862 5861 5860 5859 5857 5856 5855 5854 5853 5852 5850 5849 5848
5844 5845 5847 5849 5852 5853 5855 5856 5857 5858 5859 5860 5861 5862 5864 5864 5864 5865 5865 5864 5864 5864 5863 5863 5863 5863 5863 5863 5862 5861 5860 5859 5858 5857 5856 5855 5854 5853 5852 5850 5849 5848 5847 5846
5840 5842 5844 5846 5848 5850 5851 5853 5853 5854 5855 5856 5858 5858 5860 5860 5861 5861 5861 5861 5861 5861 5860 5860 5860 5860 5860 5860 5859 5858 5857 5857 5855 5854 5853 5852 5851 5850 5849 5848 5846 5845 5844 5843
5837 5839 5841 5843 5845 5847 5848 5849 5850 5851 5851 5853 5854 5855 5856 5857 5857 5858 5858 5858 5858 5858 5857 5857 5857 5857 5857 5857 5856 5855 5854 5854 5852 5851 5849 5848 5848 5847 5846 5845 5843 5842 5841 5841
5834 5836 5837 5839 5841 5843 5844 5846 5847 5848 5849 5850 5851 5851 5854 5854 5854 5854 5855 5855 5855 5854 5854 5854 5854 5854 5854 5853 5853 5852 5851 5850 5849 5847 5846 5845 5845 5844 5843 5841 5840 5839 5838 5838
5830 5833 5834 5835 5837 5839 5840 5841 5843 5844 5845 5846 5847 5848 5850 5850 5851 5851 5851 5852 5851 5851 5851 5851 5850 5850 5850 5850 5849 5848 5847 5846 5844 5843 5842 5842 5841 5840 5839 5838 5836 5836 5835 5835
5827 5829 5830 5831 5833 5834 5837 5838 5839 5840 5841 5842 5843 5844 5846 5847 5847 5847 5848 5848 5848 5848 5848 5847 5847 5846 5846 5846 5845 5844 5843 5841 5841 5840 5838 5838 5837 5836 5835 5833 5833 5832 5832 5831
5823 5825 5827 5828 5829 5831 5833 5834 5835 5836 5837 5838 5839 5843 5842 5843 5843 5843 5844 5844 5844 5844 5844 5843 5843 5842 5842 5841 5840 5839 5838 5837 5836 5835 5835 5834 5833 5832 5830 5830 5829 5829 5828 5828
5819 5821 5822 5824 5825 5826 5828 5829 5831 5833 5833 5834 5835 5840 5838 5838 5838 5839 5839 5839 5839 5839 5839 5839 5838 5838 5838 5837 5836 5835 5834 5833 5832 5831 5830 5829 5829 5827 5826 5826 5825 5824 5824 5823
5814 5816 5818 5820 5823 5823 5824 5825 5826 5828 5829 5829 5831 5835 5833 5833 5834 5834 5834 5834 5834 5834 5834 5834 5833 5833 5833 5832 5831 5830 5829 5828 5828 5827 5826 5825 5824 5823 5822 5821 5821 5820 5819 5819
5810 5812 5815 5817 5817 5818 5819 5820 5822 5823 5824 5825 5826 5827 5828 5828 5829 5829 5829 5828 5828 5829 5828 5828 5828 5828 5827 5827 5826 5825 5824 5824 5823 5822 5821 5820 5819 5818 5818 5817 5816 5815 5815 5814
5806 5807 5809 5811 5812 5813 5814 5816 5816 5817 5818 5820 5821 5821 5823 5823 5823 5823 5823 5823 5823 5823 5823 5822 5822 5822 5821 5821 5820 5820 5819 5818 5818 5817 5816 5815 5814 5813 5812 5812 5811 5810 5810 5809
5801 5802 5804 5805 5806 5807 5809 5810 5811 5812 5812 5813 5814 5816 5816 5816 5816 5817 5817 5817 5817 5817 5816 5816 5816 5816 5816 5815 5815 5814 5813 5812 5812 5811 5811 5810 5809 5808 5807 5807 5806 5806 5804 5803
5795 5797 5798 5800 5801 5802 5804 5805 5806 5806 5807 5808 5809 5810 5810 5811 5810 5810 5810 5811 5810 5810 5810 5809 5809 5809 5809 5809 5809 5808 5807 5807 5806 5805 5804 5804 5803 5802 5801 5801 5801 5800 5799 5798
5790 5791 5792 5794 5796 5797 5801 5799 5800 5801 5801 5802 5803 5803 5804 5804 5804 5804 5804 5804 5804 5804 5804 5803 5803 5803 5802 5802 5802 5801 5801 5800 5799 5799 5798 5797 5797 5796 5795 5795 5794 5794 5793 5792
5784 5786 5787 5788 5789 5791 5793 5794 5794 5795 5796 5796 5796 5797 5798 5798 5798 5798 5798 5798 5798 5798 5797 5797 5797 5796 5796 5796 5795 5795 5795 5794 5793 5792 5791 5791 5790 5790 5789 5788 5787 5787 5786 5785
5779 5780 5782 5782 5783 5785 5788 5788 5788 5790 5790 5790 5790 5791 5791 5791 5792 5792 5792 5791 5791 5791 5791 5791 5790 5790 5789 5789 5788 5788 5787 5787 5786 5786 5785 5784 5783 5783 5782 5781 5780 5779 5778 5778
5774 5774 5776 5776 5777 5779 5781 5782 5783 5784 5785 5784 5784 5784 5785 5785 5786 5785 5784 5784 5784 5784 5783 5783 5783 5783 5782 5781 5781 5780 5780 5779 5779 5778 5777 5777 5776 5775 5774 5774 5773 5772 5771 5771
5768 5769 5770 5771 5772 5775 5775 5775 5777 5777 5777 5777 5778 5778 5778 5778 5778 5778 5778 5777 5777 5777 5776 5776 5775 5775 5775 5774 5773 5772 5772 5772 5771 5771 5770 5769 5768 5768 5767 5766 5765 5764 5763 5763
5762 5764 5764 5766 5768 5768 5768 5769 5770 5770 5771 5771 5771 5771 5771 5772 5772 5771 5771 5770 5770 5769 5769 5768 5768 5768 5767 5766 5765 5765 5764 5764 5763 5762 5762 5761 5760 5759 5759 5758 5756 5756 5755 5754
5756 5757 5758 5759 5761 5761 5762 5763 5763 5764 5764 5764 5765 5765 5765 5765 5765 5764 5764 5763 5763 5762 5761 5761 5760 5760 5759 5758 5757 5757 5756 5755 5755 5754 5753 5752 5751 5750 5750 5749 5748 5747 5746 5746
5750 5751 5751 5753 5754 5755 5756 5757 5757 5757 5758 5758 5758 5758 5758 5758 5758 5757 5757 5756 5755 5755 5754 5753 5752 5752 5751 5750 5750 5749 5748 5747 5746 5745 5745 5744 5743 5742 5741 5740 5739 5738 5738 5737
5743 5745 5746 5747 5748 5749 5750 5750 5751 5751 5751 5751 5752 5752 5751 5751 5750 5750 5749 5749 5748 5747 5746 5745 5745 5744 5743 5743 5742 5741 5740 5740 5739 5738 5736 5736 5735 5734 5733 5732 5731 5730 5730 5729